| time (UTC) | temp F | wind direction | speed MPH | gust MPH | rain 1hr in | rain 24hr in | rain mn in | humidity % | barometer mb |
| 20260901071828 | 66 | 308 | 2.0 | 0.0 | 0.00 | 0.00 | 0.00 | 55 | 962.8 |
| 20260901071228 | 66 | 302 | 2.0 | 0.0 | 0.00 | 0.00 | 0.00 | 56 | 962.8 |
| 20260901070934 | 66 | 174 | 0.0 | 0.0 | 0.00 | 0.00 | 0.00 | 53 | 962.8 |
| 20260901065827 | 66 | 240 | 3.0 | 0.0 | 0.00 | 0.00 | 0.00 | 55 | 962.8 |
| 20260901065425 | 66 | 241 | 2.0 | 0.0 | 0.00 | 0.00 | 0.00 | 56 | 962.8 |
| 20260901062824 | 68 | 292 | 2.0 | 0.0 | 0.00 | 0.00 | 0.00 | 54 | 962.4 |
| 20260901062325 | 68 | 291 | 2.0 | 0.0 | 0.00 | 0.00 | 0.00 | 54 | 962.4 |
| 20260901061826 | 68 | 298 | 0.0 | 0.0 | 0.00 | 0.00 | 0.00 | 51 | 962.4 |
| 20260901061425 | 69 | 298 | 2.0 | 0.0 | 0.00 | 0.00 | 0.00 | 50 | 962.4 |
| 20260901054824 | 71 | 294 | 3.0 | 0.0 | 0.00 | 0.00 | 0.00 | 44 | 962.4 |
| 20260901054323 | 72 | 259 | 3.0 | 0.0 | 0.00 | 0.00 | 0.00 | 44 | 962.4 |
| 20260901053822 | 72 | 96 | 4.0 | 0.0 | 0.00 | 0.00 | 0.00 | 46 | 962.4 |
| 20260901053323 | 72 | 55 | 3.0 | 0.0 | 0.00 | 0.00 | 0.00 | 46 | 962.4 |
| 20260901052823 | 72 | 13 | 3.0 | 0.0 | 0.00 | 0.00 | 0.00 | 48 | 962.4 |
| 20260901052321 | 72 | 264 | 4.0 | 0.0 | 0.00 | 0.00 | 0.00 | 49 | 962.4 |
| 20260901051822 | 72 | 16 | 5.0 | 0.0 | 0.00 | 0.00 | 0.00 | 48 | 962.4 |
| 20260901051322 | 72 | 353 | 5.0 | 0.0 | 0.00 | 0.00 | 0.00 | 48 | 962.4 |
| 20260901050820 | 73 | 311 | 5.0 | 0.0 | 0.00 | 0.00 | 0.00 | 47 | 962.4 |
| 20260901050320 | 73 | 284 | 5.0 | 0.0 | 0.00 | 0.00 | 0.00 | 47 | 962.4 |
| 20260901045818 | 73 | 16 | 5.0 | 0.0 | 0.00 | 0.00 | 0.00 | 47 | 962.4 |
| 20260901045320 | 73 | 352 | 4.0 | 0.0 | 0.00 | 0.00 | 0.00 | 46 | 962.4 |
| 20260901044919 | 73 | 262 | 5.0 | 0.0 | 0.00 | 0.00 | 0.00 | 46 | 962.4 |
| 20260901044019 | 74 | 347 | 3.0 | 0.0 | 0.00 | 0.00 | 0.00 | 44 | 962.4 |
| 20260901042616 | 74 | 324 | 3.0 | 0.0 | 0.00 | 0.00 | 0.00 | 43 | 962.1 |
| 20260901042116 | 74 | 276 | 3.0 | 0.0 | 0.00 | 0.00 | 0.00 | 42 | 962.1 |
| 20260901041616 | 74 | 266 | 4.0 | 0.0 | 0.00 | 0.00 | 0.00 | 42 | 962.1 |
| 20260901041216 | 74 | 280 | 4.0 | 0.0 | 0.00 | 0.00 | 0.00 | 42 | 962.1 |
| 20260901040014 | 75 | 222 | 4.0 | 0.0 | 0.00 | 0.00 | 0.00 | 40 | 962.1 |
| 20260901035415 | 75 | 262 | 4.0 | 0.0 | 0.00 | 0.00 | 0.00 | 39 | 961.7 |
| 20260901034614 | 75 | 238 | 4.0 | 0.0 | 0.00 | 0.00 | 0.00 | 39 | 961.7 |
| 20260901034114 | 75 | 330 | 3.0 | 0.0 | 0.00 | 0.00 | 0.00 | 38 | 961.7 |
| 20260901033614 | 75 | 301 | 4.0 | 0.0 | 0.00 | 0.00 | 0.00 | 38 | 961.7 |
| 20260901033113 | 76 | 265 | 3.0 | 0.0 | 0.00 | 0.00 | 0.00 | 37 | 961.4 |
| 20260901032612 | 76 | 303 | 4.0 | 0.0 | 0.00 | 0.00 | 0.00 | 37 | 961.4 |
| 20260901032114 | 76 | 174 | 4.0 | 0.0 | 0.00 | 0.00 | 0.00 | 37 | 961.4 |
| 20260901031636 | 76 | 208 | 3.0 | 0.0 | 0.00 | 0.00 | 0.00 | 37 | 961.4 |
| 20260901031112 | 77 | 186 | 3.0 | 0.0 | 0.00 | 0.00 | 0.00 | 36 | 961.4 |
| 20260901030611 | 77 | 109 | 3.0 | 0.0 | 0.00 | 0.00 | 0.00 | 36 | 961.4 |
| 20260901030135 | 78 | 26 | 3.0 | 0.0 | 0.00 | 0.00 | 0.00 | 35 | 961.1 |
| 20260901025611 | 79 | 55 | 6.0 | 0.0 | 0.00 | 0.00 | 0.00 | 34 | 961.1 |
| 20260901025142 | 79 | 1 | 6.0 | 0.0 | 0.00 | 0.00 | 0.00 | 34 | 960.7 |
| 20260901024640 | 79 | 124 | 7.0 | 0.0 | 0.00 | 0.00 | 0.00 | 33 | 960.7 |
| 20260901024140 | 79 | 278 | 7.0 | 0.0 | 0.00 | 0.00 | 0.00 | 33 | 960.7 |
| 20260901023642 | 79 | 8 | 4.0 | 0.0 | 0.00 | 0.00 | 0.00 | 33 | 960.4 |
| 20260901023111 | 80 | 331 | 4.0 | 0.0 | 0.00 | 0.00 | 0.00 | 32 | 960.4 |
| 20260901022613 | 80 | 12 | 5.0 | 0.0 | 0.00 | 0.00 | 0.00 | 32 | 960.4 |
| 20260901022142 | 80 | 16 | 6.0 | 0.0 | 0.00 | 0.00 | 0.00 | 32 | 960.4 |
| 20260901021611 | 81 | 45 | 7.0 | 0.0 | 0.00 | 0.00 | 0.00 | 31 | 960.4 |
| 20260901021113 | 81 | 251 | 7.0 | 0.0 | 0.00 | 0.00 | 0.00 | 31 | 960.4 |
| 20260901020636 | 81 | 68 | 9.0 | 0.0 | 0.00 | 0.00 | 0.00 | 30 | 960.4 |
| 20260901020112 | 81 | 137 | 11.0 | 0.0 | 0.00 | 0.00 | 0.00 | 30 | 960.4 |
| 20260901015638 | 82 | 105 | 9.0 | 0.0 | 0.00 | 0.00 | 0.00 | 29 | 960.4 |
| 20260901015112 | 82 | 126 | 7.0 | 0.0 | 0.00 | 0.00 | 0.00 | 28 | 960.0 |
| 20260901014642 | 82 | 165 | 7.0 | 0.0 | 0.00 | 0.00 | 0.00 | 26 | 960.4 |
| 20260901014112 | 82 | 336 | 8.0 | 0.0 | 0.00 | 0.00 | 0.00 | 27 | 960.4 |
| 20260901013641 | 83 | 149 | 8.0 | 0.0 | 0.00 | 0.00 | 0.00 | 27 | 960.4 |
| 20260901013111 | 83 | 324 | 9.0 | 0.0 | 0.00 | 0.00 | 0.00 | 28 | 960.0 |
| 20260901012639 | 83 | 163 | 10.0 | 0.0 | 0.00 | 0.00 | 0.00 | 28 | 960.0 |
| 20260901012213 | 84 | 138 | 10.0 | 0.0 | 0.00 | 0.00 | 0.00 | 28 | 960.4 |
| 20260901011635 | 84 | 11 | 7.0 | 0.0 | 0.00 | 0.00 | 0.00 | 28 | 960.4 |
| 20260901011133 | 85 | 140 | 11.0 | 0.0 | 0.00 | 0.00 | 0.00 | 28 | 960.0 |
| 20260901010633 | 85 | 218 | 10.0 | 0.0 | 0.00 | 0.00 | 0.00 | 27 | 960.0 |
| 20260901010133 | 86 | 84 | 9.0 | 0.0 | 0.00 | 0.00 | 0.00 | 27 | 960.0 |
| 20260901005632 | 86 | 188 | 9.0 | 0.0 | 0.00 | 0.00 | 0.00 | 27 | 960.0 |
| 20260901005132 | 86 | 122 | 12.0 | 0.0 | 0.00 | 0.00 | 0.00 | 27 | 960.0 |
| 20260901004632 | 87 | 196 | 11.0 | 0.0 | 0.00 | 0.00 | 0.00 | 27 | 960.0 |
| 20260901004132 | 87 | 134 | 11.0 | 0.0 | 0.00 | 0.00 | 0.00 | 27 | 960.0 |
| 20260901003631 | 88 | 124 | 12.0 | 0.0 | 0.00 | 0.00 | 0.00 | 26 | 960.0 |
| 20260901003132 | 89 | 154 | 12.0 | 0.0 | 0.00 | 0.00 | 0.00 | 26 | 959.7 |
| 20260901002631 | 89 | 110 | 13.0 | 0.0 | 0.00 | 0.00 | 0.00 | 25 | 959.7 |
| 20260901002131 | 90 | 144 | 13.0 | 0.0 | 0.00 | 0.00 | 0.00 | 25 | 959.7 |
| 20260901001632 | 90 | 137 | 13.0 | 0.0 | 0.00 | 0.00 | 0.00 | 26 | 959.7 |
| 20260901001130 | 90 | 197 | 14.0 | 0.0 | 0.00 | 0.00 | 0.00 | 25 | 959.7 |
| 20260901000629 | 91 | 145 | 14.0 | 0.0 | 0.00 | 0.00 | 0.00 | 24 | 959.7 |
| 20260901000131 | 91 | 196 | 15.0 | 0.0 | 0.00 | 0.00 | 0.00 | 25 | 959.7 |
| 20260831235630 | 91 | 149 | 14.0 | 0.0 | 0.00 | 0.00 | 0.00 | 25 | 959.7 |
| 20260831235128 | 92 | 102 | 14.0 | 0.0 | 0.00 | 0.00 | 0.00 | 25 | 959.7 |
| 20260831234630 | 92 | 189 | 11.0 | 0.0 | 0.00 | 0.00 | 0.00 | 25 | 959.7 |
| 20260831234129 | 92 | 96 | 11.0 | 0.0 | 0.00 | 0.00 | 0.00 | 25 | 959.7 |
| 20260831233628 | 92 | 76 | 10.0 | 0.0 | 0.00 | 0.00 | 0.00 | 25 | 959.7 |
| 20260831233126 | 92 | 210 | 11.0 | 0.0 | 0.00 | 0.00 | 0.00 | 25 | 959.7 |
| 20260831232628 | 92 | 152 | 11.0 | 0.0 | 0.00 | 0.00 | 0.00 | 25 | 959.7 |
| 20260831232229 | 92 | 30 | 11.0 | 0.0 | 0.00 | 0.00 | 0.00 | 25 | 959.7 |
| 20260831231127 | 93 | 127 | 13.0 | 0.0 | 0.00 | 0.00 | 0.00 | 26 | 959.7 |
| 20260831230626 | 93 | 159 | 12.0 | 0.0 | 0.00 | 0.00 | 0.00 | 26 | 959.7 |
| 20260831230125 | 93 | 175 | 15.0 | 0.0 | 0.00 | 0.00 | 0.00 | 26 | 959.7 |
| 20260831225625 | 94 | 98 | 15.0 | 0.0 | 0.00 | 0.00 | 0.00 | 26 | 959.7 |
| 20260831225126 | 94 | 212 | 13.0 | 0.0 | 0.00 | 0.00 | 0.00 | 25 | 959.7 |
| 20260831224625 | 94 | 129 | 12.0 | 0.0 | 0.00 | 0.00 | 0.00 | 26 | 959.7 |
| 20260831214422 | 95 | 154 | 11.0 | 0.0 | 0.00 | 0.00 | 0.00 | 25 | 960.4 |
| 20260831213924 | 95 | 50 | 16.0 | 0.0 | 0.00 | 0.00 | 0.00 | 25 | 960.4 |
| 20260831213621 | 94 | 194 | 16.0 | 0.0 | 0.00 | 0.00 | 0.00 | 26 | 960.4 |
| 20260831212824 | 94 | 134 | 11.0 | 0.0 | 0.00 | 0.00 | 0.00 | 26 | 960.4 |
| 20260831211439 | 95 | 136 | 10.0 | 0.0 | 0.00 | 0.00 | 0.00 | 25 | 960.7 |
| 20260831210943 | 94 | 134 | 12.0 | 0.0 | 0.00 | 0.00 | 0.00 | 24 | 960.7 |
| 20260831210423 | 95 | 100 | 13.0 | 0.0 | 0.00 | 0.00 | 0.00 | 23 | 960.7 |
| 20260831205937 | 95 | 149 | 11.0 | 0.0 | 0.00 | 0.00 | 0.00 | 23 | 960.7 |
| 20260831205441 | 95 | 140 | 10.0 | 0.0 | 0.00 | 0.00 | 0.00 | 23 | 960.7 |
| 20260831204941 | 95 | 124 | 11.0 | 0.0 | 0.00 | 0.00 | 0.00 | 22 | 961.1 |
| 20260831204520 | 95 | 126 | 11.0 | 0.0 | 0.00 | 0.00 | 0.00 | 22 | 961.1 |
| 20260831204219 | 94 | 152 | 9.0 | 0.0 | 0.00 | 0.00 | 0.00 | 22 | 961.1 |
| 20260831203438 | 95 | 122 | 10.0 | 0.0 | 0.00 | 0.00 | 0.00 | 22 | 961.1 |
| 20260831202923 | 94 | 135 | 13.0 | 0.0 | 0.00 | 0.00 | 0.00 | 23 | 961.1 |
| 20260831202617 | 94 | 176 | 0.0 | 0.0 | 0.00 | 0.00 | 0.00 | 23 | 961.1 |
| 20260831200936 | 95 | 125 | 13.0 | 0.0 | 0.00 | 0.00 | 0.00 | 22 | 961.1 |
| 20260831200441 | 94 | 124 | 13.0 | 0.0 | 0.00 | 0.00 | 0.00 | 22 | 961.1 |
| 20260831195938 | 94 | 176 | 9.0 | 0.0 | 0.00 | 0.00 | 0.00 | 22 | 961.1 |
| 20260831195417 | 93 | 105 | 13.0 | 0.0 | 0.00 | 0.00 | 0.00 | 22 | 961.1 |
| 20260831195018 | 93 | 135 | 10.0 | 0.0 | 0.00 | 0.00 | 0.00 | 23 | 961.4 |
| 20260831194716 | 92 | 141 | 0.0 | 0.0 | 0.00 | 0.00 | 0.00 | 20 | 961.4 |
| 20260831192440 | 92 | 126 | 11.0 | 0.0 | 0.00 | 0.00 | 0.00 | 20 | 961.4 |
| 20260831191938 | 92 | 207 | 10.0 | 0.0 | 0.00 | 0.00 | 0.00 | 20 | 961.4 |
| 20260831191440 | 91 | 146 | 13.0 | 0.0 | 0.00 | 0.00 | 0.00 | 21 | 961.4 |
| 20260831190941 | 92 | 88 | 10.0 | 0.0 | 0.00 | 0.00 | 0.00 | 20 | 961.7 |
| 20260831190444 | 92 | 190 | 10.0 | 0.0 | 0.00 | 0.00 | 0.00 | 20 | 961.7 |
| 20260831185941 | 92 | 108 | 8.0 | 0.0 | 0.00 | 0.00 | 0.00 | 20 | 961.7 |
| 20260831185614 | 91 | 135 | 9.0 | 0.0 | 0.00 | 0.00 | 0.00 | 21 | 961.7 |
| 20260831172414 | 86 | 95 | 6.0 | 0.0 | 0.00 | 0.00 | 0.00 | 45 | 962.1 |
| 20260831171937 | 86 | 131 | 5.0 | 0.0 | 0.00 | 0.00 | 0.00 | 46 | 962.1 |
| 20260831171436 | 86 | 80 | 3.0 | 0.0 | 0.00 | 0.00 | 0.00 | 47 | 962.1 |
| 20260831170940 | 84 | 129 | 6.0 | 0.0 | 0.00 | 0.00 | 0.00 | 48 | 962.1 |
| 20260831170442 | 85 | 149 | 4.0 | 0.0 | 0.00 | 0.00 | 0.00 | 49 | 962.1 |
| 20260831165914 | 84 | 139 | 6.0 | 0.0 | 0.00 | 0.00 | 0.00 | 50 | 962.1 |
| 20260831165442 | 84 | 243 | 5.0 | 0.0 | 0.00 | 0.00 | 0.00 | 49 | 962.1 |
| 20260831164914 | 84 | 101 | 5.0 | 0.0 | 0.00 | 0.00 | 0.00 | 49 | 962.1 |
| 20260831164441 | 83 | 227 | 5.0 | 0.0 | 0.00 | 0.00 | 0.00 | 51 | 962.1 |
| 20260831163944 | 82 | 96 | 4.0 | 0.0 | 0.00 | 0.00 | 0.00 | 52 | 962.1 |
| 20260831163443 | 82 | 290 | 4.0 | 0.0 | 0.00 | 0.00 | 0.00 | 52 | 962.1 |
| 20260831162940 | 82 | 11 | 4.0 | 0.0 | 0.00 | 0.00 | 0.00 | 53 | 962.1 |
| 20260831162442 | 81 | 349 | 4.0 | 0.0 | 0.00 | 0.00 | 0.00 | 55 | 961.7 |
| 20260831161943 | 81 | 65 | 4.0 | 0.0 | 0.00 | 0.00 | 0.00 | 55 | 962.1 |
| 20260831161440 | 80 | 201 | 4.0 | 0.0 | 0.00 | 0.00 | 0.00 | 56 | 961.7 |
| 20260831160916 | 80 | 148 | 3.0 | 0.0 | 0.00 | 0.00 | 0.00 | 57 | 962.1 |
| 20260831160444 | 79 | 278 | 3.0 | 0.0 | 0.00 | 0.00 | 0.00 | 58 | 962.1 |
| 20260831155944 | 78 | 329 | 4.0 | 0.0 | 0.00 | 0.00 | 0.00 | 59 | 962.1 |
| 20260831155541 | 79 | 328 | 4.0 | 0.0 | 0.00 | 0.00 | 0.00 | 59 | 962.1 |
| 20260831154713 | 78 | 162 | 3.0 | 0.0 | 0.00 | 0.00 | 0.00 | 61 | 962.1 |
| 20260831154143 | 78 | 183 | 3.0 | 0.0 | 0.00 | 0.00 | 0.00 | 62 | 962.1 |
| 20260831153815 | 76 | 210 | 0.0 | 0.0 | 0.00 | 0.00 | 0.00 | 64 | 962.1 |
| 20260831152539 | 76 | 7 | 3.0 | 0.0 | 0.00 | 0.00 | 0.00 | 65 | 962.1 |
| 20260831142414 | 68 | 170 | 3.0 | 0.0 | 0.00 | 0.00 | 0.00 | 83 | 961.7 |
| 20260831141939 | 67 | 130 | 3.0 | 0.0 | 0.00 | 0.00 | 0.00 | 84 | 961.7 |
| 20260831141414 | 67 | 126 | 4.0 | 0.0 | 0.00 | 0.00 | 0.00 | 85 | 961.4 |
| 20260831140914 | 66 | 141 | 3.0 | 0.0 | 0.00 | 0.00 | 0.00 | 86 | 961.4 |
| 20260831140415 | 66 | 118 | 2.0 | 0.0 | 0.00 | 0.00 | 0.00 | 88 | 961.4 |
| 20260831140000 | 65 | 169 | 2.0 | 0.0 | 0.00 | 0.00 | 0.00 | 90 | 961.4 |
| 20260831135426 | 64 | 176 | 2.0 | 0.0 | 0.00 | 0.00 | 0.00 | 91 | 961.4 |
| 20260831134944 | 63 | 112 | 3.0 | 0.0 | 0.00 | 0.00 | 0.00 | 92 | 961.4 |
| 20260831134657 | 63 | 187 | 3.0 | 0.0 | 0.00 | 0.00 | 0.00 | 93 | 961.4 |
| 20260831134241 | 63 | 175 | 2.0 | 0.0 | 0.00 | 0.00 | 0.00 | 92 | 961.4 |
| 20260831133440 | 63 | 205 | 1.0 | 0.0 | 0.00 | 0.00 | 0.00 | 91 | 961.4 |
| 20260831131255 | 62 | 207 | 0.0 | 0.0 | 0.00 | 0.00 | 0.00 | 86 | 961.1 |
| 20260831130432 | 62 | 207 | 0.0 | 0.0 | 0.00 | 0.00 | 0.00 | 85 | 961.1 |
| 20260831125918 | 63 | 207 | 0.0 | 0.0 | 0.00 | 0.00 | 0.00 | 86 | 961.1 |
| 20260831125444 | 63 | 205 | 0.0 | 0.0 | 0.00 | 0.00 | 0.00 | 87 | 961.1 |
| 20260831124952 | 63 | 325 | 0.0 | 0.0 | 0.00 | 0.00 | 0.00 | 87 | 961.1 |
| 20260831122915 | 63 | 325 | 0.0 | 0.0 | 0.00 | 0.00 | 0.00 | 84 | 961.1 |
| 20260831122441 | 64 | 324 | 0.0 | 0.0 | 0.00 | 0.00 | 0.00 | 83 | 961.1 |
| 20260831121938 | 64 | 325 | 2.0 | 0.0 | 0.00 | 0.00 | 0.00 | 82 | 961.1 |
| 20260831121442 | 64 | 324 | 2.0 | 0.0 | 0.00 | 0.00 | 0.00 | 83 | 961.1 |
| 20260831120942 | 64 | 326 | 2.0 | 0.0 | 0.00 | 0.00 | 0.00 | 82 | 961.1 |
| 20260831120443 | 64 | 304 | 3.0 | 0.0 | 0.00 | 0.00 | 0.00 | 84 | 961.1 |
| 20260831115941 | 64 | 318 | 2.0 | 0.0 | 0.00 | 0.00 | 0.00 | 82 | 961.1 |
| 20260831115442 | 64 | 342 | 2.0 | 0.0 | 0.00 | 0.00 | 0.00 | 80 | 961.1 |
| 20260831114944 | 64 | 318 | 2.0 | 0.0 | 0.00 | 0.00 | 0.00 | 78 | 961.1 |
| 20260831114807 | 64 | 30 | 2.0 | 0.0 | 0.00 | 0.00 | 0.00 | 78 | 961.1 |
| 20260831105306 | 65 | 315 | 2.0 | 0.0 | 0.00 | 0.00 | 0.00 | 75 | 961.1 |
| 20260831104439 | 65 | 230 | 1.0 | 0.0 | 0.00 | 0.00 | 0.00 | 75 | 961.1 |
| 20260831104005 | 66 | 229 | 1.0 | 0.0 | 0.00 | 0.00 | 0.00 | 74 | 961.1 |
| 20260831103439 | 66 | 302 | 2.0 | 0.0 | 0.00 | 0.00 | 0.00 | 73 | 961.1 |
| 20260831102940 | 67 | 207 | 2.0 | 0.0 | 0.00 | 0.00 | 0.00 | 73 | 961.1 |
| 20260831102442 | 67 | 162 | 2.0 | 0.0 | 0.00 | 0.00 | 0.00 | 73 | 961.1 |
| 20260831101959 | 67 | 297 | 2.0 | 0.0 | 0.00 | 0.00 | 0.00 | 74 | 961.1 |
| 20260831101501 | 67 | 297 | 0.0 | 0.0 | 0.00 | 0.00 | 0.00 | 72 | 961.1 |
| 20260831101000 | 67 | 297 | 0.0 | 0.0 | 0.00 | 0.00 | 0.00 | 74 | 961.1 |
| 20260831100459 | 67 | 297 | 0.0 | 0.0 | 0.00 | 0.00 | 0.00 | 72 | 960.7 |
| 20260831095959 | 67 | 296 | 1.0 | 0.0 | 0.00 | 0.00 | 0.00 | 72 | 961.1 |
| 20260831095458 | 67 | 296 | 0.0 | 0.0 | 0.00 | 0.00 | 0.00 | 72 | 961.1 |
| 20260831094856 | 67 | 297 | 2.0 | 0.0 | 0.00 | 0.00 | 0.00 | 72 | 961.1 |
| 20260831094758 | 67 | 296 | 2.0 | 0.0 | 0.00 | 0.00 | 0.00 | 72 | 961.1 |
| 20260831093955 | 67 | 312 | 0.0 | 0.0 | 0.00 | 0.00 | 0.00 | 72 | 961.1 |
| 20260831093355 | 67 | 312 | 0.0 | 0.0 | 0.00 | 0.00 | 0.00 | 70 | 961.1 |
| 20260831093255 | 68 | 312 | 0.0 | 0.0 | 0.00 | 0.00 | 0.00 | 69 | 961.1 |
| 20260831092455 | 68 | 313 | 2.0 | 0.0 | 0.00 | 0.00 | 0.00 | 68 | 961.1 |
| 20260831091957 | 68 | 312 | 2.0 | 0.0 | 0.00 | 0.00 | 0.00 | 67 | 960.7 |
| 20260831091454 | 69 | 289 | 2.0 | 0.0 | 0.00 | 0.00 | 0.00 | 68 | 960.7 |
| 20260831091057 | 68 | 215 | 3.0 | 0.0 | 0.00 | 0.00 | 0.00 | 72 | 960.7 |
| 20260831090656 | 68 | 299 | 0.0 | 0.0 | 0.00 | 0.00 | 0.00 | 68 | 960.7 |
| 20260831084953 | 68 | 300 | 1.0 | 0.0 | 0.00 | 0.00 | 0.00 | 68 | 961.1 |
| 20260831084455 | 68 | 299 | 0.0 | 0.0 | 0.00 | 0.00 | 0.00 | 66 | 961.1 |
| 20260831083952 | 68 | 299 | 1.0 | 0.0 | 0.00 | 0.00 | 0.00 | 66 | 961.1 |
| 20260831083352 | 68 | 267 | 1.0 | 0.0 | 0.00 | 0.00 | 0.00 | 66 | 961.1 |